GAOFEN 3 DEB, 42678

Orbit data source: Space-Track

GAOFEN 3 DEB, 42678 is space debris in SSO originally from a launch on Tue, 09 Aug 2016 UTC launched from the Taiyaun Space Center, China (TSC). Debris objects in space refer to the collection of defunct objects orbiting the Earth. Examples of debris include non-operational satellites, rocket bodies, and fragments generated from explosions, collisions, or faulty payload assembly.

Loading next visibility...
GAOFEN 3 DEB details
Identifier
42678, 2016-049C
Orbit
SSO
Last TLE update23 hours ago
Origin
Flag of CNCNSA (CN / PRC)
ManufacturerUnknown
MissionSpacecraft
Bus & MotorUnknown
MassUnknown
Launch date (UTC)
2016-08-09 (8 years ago)
Launch vehicleUnknown
Launch site
Taiyaun Space Center, China (TSC)
Object type
Payload
Rocket body
Debris
Shape & HBRUnknown
Radar Cross SectionSmall (<0.1 m²)

Expand to show TLE details & history

TLE from 23 hours ago
0 GAOFEN 3 DEB
1 42678U 16049C   24336.32329145  .00000826  00000-0  24247-3 0  9992
2 42678  98.3315 346.6520 0007410 263.8822  96.1525 14.46314389432546
Epoch: 2024-12-01T07:45Z
Definitive object data (Epoch: 2024-12-01T07:45:32.381Z)
Latitude-0.00011°
Longitude159.60394°
Altitude741.243 km
Speed7.484 km/s
True Right ascension23h 06m 36s
True Declination0° 00' 00"
Sunlit
Object was in daylight at TLE epoch
Visualization TLE readout
Latitude-34.60507°
Longitude166.31749°
Altitude748.482 km
Speed7.48 km/s
Apparent Right ascension20h 31m 29s
Apparent Declination-50° 34' 15"
Sunlit
Object is in daylight
Visualization observer readout
Local Sidereal Time04:36:33
Azimuth234.945° WSW
Elevation-48.457°
Doppler factor1
Orbital elements
Apogee altitude740.088 km
Perigee altitude729.547 km
Semi-major axis7,112.954 km
Eccentricity0.000741
Inclination98.3315°
RAAN346.652°
Arg. of periapsis263.8822°
True anomaly96.23691°
Mean anomaly96.1525°
Eccentric anomaly96.19471°
Mean motion3.618 °/min
BSTAR0.00024247
Orbital period99.5 mins
Loading maneuver chart data...
Loading historical data...
Loading historical data...
Loading historical data...
Loading historical data...
Loading historical data...
Loading historical data...
Loading historical data...

GAOFEN 3 DEB Visibility forecast

Observer location: undefined°, undefined

Span
Click to sort rows by Start time (UTC) header in descending order
Start Az.
Max El. time (UTC)
Max El. Az.
Max El.
End time (UTC)
End Az.
5 mins2024-12-02 12:35:35.438Z56.652° ENE2024-12-02 12:38:35.438Z96.623° ESE16°2024-12-02 12:40:35.438Z123.365° SE
8 mins2024-12-02 14:13:35.438Z357.351° N2024-12-02 14:16:35.438Z306.082° NW37.476°2024-12-02 14:21:35.438Z213.266° SW
5 mins2024-12-02 23:46:35.438Z98.41° ESE2024-12-02 23:48:35.438Z68.714° E19.365°2024-12-02 23:51:35.438Z25.424° NE
8 mins2024-12-03 01:23:35.438Z195.758° SSW2024-12-03 01:26:35.438Z249.374° W34.673°2024-12-03 01:31:35.438Z333.444° NNW
|